{"data":{"norad_id":65955,"intl_designator":"2025-228J","name":"KUIPER-00126","alt_names":[],"object_type":"PAYLOAD","status":"ACTIVE","operator":null,"country":"US","launch_date":"2025-10-14","launch_site_code":"AFETR","launch_vehicle":null,"mission":null,"orbit_class":"UNKNOWN","rcs_meters":null,"size_class":null,"mass_kg":null,"dimensions":null,"purposes":[],"wikipedia_slug":null,"has_3d_model":false,"image_url":null,"decayed_at":null,"tle_current":{"epoch":"2026-05-25T00:54:29.105568Z","epoch_age_seconds":67940,"freshness":"FRESH","line1":"1 65955U 25228J   26145.03783687  .00000098  00000+0  41845-4 0  9991","line2":"2 65955  51.9012  22.9847 0000740 103.5549 256.5496 14.79932375 34532","mean_motion":14.79932375,"eccentricity":7.4e-5,"inclination_deg":51.9012,"raan_deg":22.9847,"arg_perigee_deg":103.5549,"mean_anomaly_deg":256.5496,"bstar":4.1845e-5,"rev_number":3453,"period_min":97.301743263776,"perigee_km":629.01903422525,"apogee_km":630.05617006637,"semimajor_km":7007.6746021458,"source":"CELESTRAK","updated_at":"2026-05-25T13:38:05.846651Z"}}}